Regional Weather Roundup
Issued by NWS

Home | Current Version | Previous Version | Graphics & Text | Print | Product List | Glossary On
Versions: 1 2 3 4 5 6 7 8 9 10 11 12 13 14 15 16 17 18 19 20 21 22 23 24 25 26 27 28 29 30 31 32 33 34 35 36 37 38 39 40 41 42 43 44 45 46 47 48 49 50
000
ASUS43 KIND 031509
RWRIN

WEATHER ROUNDUP FOR INDIANA
NATIONAL WEATHER SERVICE INDIANAPOLIS IN
1000 AM EST TUE MAR 03 2015

NOTE: "FAIR" INDICATES FEW OR NO CLOUDS BELOW 12,000 FEET WITH NO
SIGNIFICANT WEATHER AND/OR OBSTRUCTIONS TO VISIBILITY.

* - STATION DOES NOT REPORT WEATHER SUCH AS PRECIPITATION OR FOG.

+ - STATION NOT QUALITY CONTROLLED BY THE NATIONAL WEATHER SERVICE.
    USE DATA WITH CAUTION...ESPECIALLY DEWPOINT AND RELATIVE
    HUMIDITY OBSERVATIONS.

INZ001>003-010>013-019-020-031600-
NORTHWEST INDIANA

CITY           SKY/WX    TMP DP  RH WIND       PRES   REMARKS
GARY /AIRPORT/ LGT RAIN  30  25  80 SE21      29.83F WCI  17
KNOX *+          N/A     28  21  74 S15G23    29.87F WCI  17
LA PORTE +     MIX PCPN  29  27  92 S12G18    29.87F WCI  19
MICHIGAN CITY+ CLOUDY    28  23  80 S10G21    29.86F HAZE    WCI  19
MONTICELLO +   MIX PCPN  28  26  94 SE8       29.90F WCI  20
RENSSELAER +   MIX PCPN  30  30 100 SE13      29.86F WCI  20
VALPARAISO     LGT SNOW  27  26  96 SE14G24   29.83F FOG     WCI  16

$$

LMZ046-743>745-031600-
SOUTHERN LAKE MICHIGAN

STATION/POSITION TIME  TEMP WIND        PRES
                       AIR  DIR/SP/G
                 (UTC) (F)  (DEG/KT/KT) (MB)
MICHIGAN CITY    1500   27  130/ 13/ 17   N/A

$$

INZ004-005-014>016-021>024-031600-
NORTH CENTRAL INDIANA

CITY           SKY/WX    TMP DP  RH WIND       PRES   REMARKS
ELKHART        CLOUDY    27  19  74 SE13      29.88F WCI  16
GOSHEN         FRZ RAIN  27  23  85 SE17      29.89F FOG     WCI  14
LOGANSPORT +   MIX PCPN  28  28 100 SE15      29.91F WCI  17
PERU/GRISSOM   FRZ RAIN  28  26  91 SE8       29.90F FOG     WCI  20
ROCHESTER +    MIX PCPN  32  30  93 SE13G20   29.90F WCI  22
SOUTH BEND     MIX PCPN  28  23  81 S16       29.89F WCI  16
WARSAW +       MIX PCPN  28  25  86 SE9G16    29.91F WCI  20

$$

INZ006>009-017-018-025>027-031600-
NORTHEAST INDIANA

CITY           SKY/WX    TMP DP  RH WIND       PRES   REMARKS
ANGOLA *+      CLOUDY    25  19  80 S15       29.91F WCI  12
FORT WAYNE     CLOUDY    27  21  78 SE17      29.97F HAZE    WCI  14
HUNTINGTON +   CLOUDY    27  19  73 SE9G17    29.93F HAZE    WCI  18

$$

INZ028-029-035-036-043>045-051>053-031600-
WEST CENTRAL INDIANA

CITY           SKY/WX    TMP DP  RH WIND       PRES   REMARKS
CRAWFORDSVL +  LGT SNOW  29  24  82 SE13      29.87F WCI  18
GREENCASTLE +  CLOUDY    30  27  86 SE13      29.91F FOG     WCI  20
LAFAYETTE      FRZ RAIN  28  26  92 SE10      29.89F FOG     WCI  19
TERRE HAUTE    LGT SNOW  32  30  92 S12       29.90F FOG     WCI  23

$$

INZ030>032-037>040-046>048-054>057-064-065-031600-
CENTRAL INDIANA

CITY           SKY/WX    TMP DP  RH WIND       PRES   REMARKS
ANDERSON       CLOUDY    28  21  74 SE12G23   29.96F FOG     WCI  18
CP ATTERBURY + MIX PCPN  32  28  86 S8        29.96F WCI  25
FRANKFORT +    MIX PCPN  30  28  90 SE14      29.91F WCI  20
GREENWOOD *+   CLOUDY    28  23  80 SE15      29.94F WCI  17
INDIANAPOLIS   FRZ RAIN  29  25  85 SE15      29.91F FOG     WCI  18
-EAGLE CREEK   CLOUDY    28  25  88 SE10      29.90F FOG     WCI  19
KOKOMO *+      CLOUDY    28  25  86 SE14      29.90F WCI  17
MARION +       MIX PCPN  29  22  78 S16       29.94F WCI  17
MT COMFORT *+  CLOUDY    30  19  64 S16       29.93F WCI  19
SHELBYVILLE    FRZ RAIN  32  25  75 SE17      29.95F WCI  21
ZIONSVILLE +   MIX PCPN  30  24  77 S14       29.92F WCI  19

$$

INZ033-034-041-042-049-050-058-059-031600-
EAST CENTRAL INDIANA

CITY           SKY/WX    TMP DP  RH WIND       PRES   REMARKS
MUNCIE         FRZ RAIN  29  24  82 S12       29.92F WCI  19

$$

INZ060-061-067>069-081>083-085>088-031600-
SOUTHWEST INDIANA

CITY           SKY/WX    TMP DP  RH WIND       PRES   REMARKS
EVANSVILLE     CLOUDY    40  35  83 S12       29.97F
HUNTINGBURG *+ CLOUDY    36  30  80 S8        29.98F
WASHINGTON +   DRIZZLE   34  31  90 S13       29.92F WCI  25

$$

INZ062-063-066-070>080-084-089>092-031600-
SOUTH CENTRAL AND SOUTHEAST INDIANA

CITY           SKY/WX    TMP DP  RH WIND       PRES   REMARKS
BLOOMINGTON    CLOUDY    31  29  92 S10       29.93F FOG     WCI  22
NORTH VERNON + MIX PCPN  32  30  93 S9        30.01F WCI  24
SEYMOUR +      DRIZZLE   34  28  80 SE10      29.98F WCI  26

$$



USA.gov is the U.S. government's official web portal to all federal, state and local government web resources and services.